Hourly Weather Búðardalur

Today, 1 October, Thursday

Time Temperature Precipitation Wind Pressure Humidity
00:00 +4°C° 0.9 mm 1 mps 743 mmHg 92%
01:00 +3°C° 0.9 mm 2 mps 743 mmHg 95%
02:00 +1°C° 0.9 mm 3 mps 742 mmHg 98%
03:00 +1°C° 0.6 mm 3 mps 743 mmHg 97%
04:00 +1°C° 0.6 mm 3 mps 743 mmHg 97%
05:00 +1°C° 0.6 mm 3 mps 743 mmHg 96%
06:00 +1°C° 0 mm 3 mps 744 mmHg 93%
07:00 +1°C° 0 mm 3 mps 744 mmHg 90%
08:00 0°C° 0 mm 3 mps 745 mmHg 87%
09:00 +2°C° 0 mm 3 mps 746 mmHg 82%
10:00 +3°C° 0 mm 3 mps 747 mmHg 78%
11:00 +4°C° 0 mm 3 mps 749 mmHg 73%
12:00 +4°C° 0 mm 3 mps 750 mmHg 71%
13:00 +5°C° 0 mm 2 mps 751 mmHg 68%
14:00 +6°C° 0 mm 2 mps 752 mmHg 66%
15:00 +5°C° 0 mm 2 mps 753 mmHg 69%
16:00 +5°C° 0 mm 1 mps 753 mmHg 72%
17:00 +4°C° 0 mm 1 mps 754 mmHg 74%
18:00 +4°C° 0 mm 1 mps 754 mmHg 76%
19:00 +3°C° 0 mm 1 mps 755 mmHg 77%
20:00 +2°C° 0 mm 1 mps 755 mmHg 79%
21:00 +2°C° 0 mm 1 mps 755 mmHg 78%
22:00 +1°C° 0 mm 0 mps 756 mmHg 78%
23:00 +1°C° 0 mm 0 mps 756 mmHg 77%

Tomorrow, 2 October, Friday

Time Temperature Precipitation Wind Pressure Humidity
00:00 +2°C° 0 mm 1 mps 756 mmHg 76%
01:00 +2°C° 0 mm 1 mps 755 mmHg 74%
02:00 +2°C° 0 mm 1 mps 755 mmHg 73%
03:00 +2°C° 0 mm 1 mps 755 mmHg 72%
04:00 +3°C° 0 mm 1 mps 755 mmHg 70%
05:00 +3°C° 0 mm 1 mps 755 mmHg 68%
06:00 +2°C° 0 mm 2 mps 755 mmHg 67%
07:00 +3°C° 0 mm 2 mps 754 mmHg 65%
08:00 +3°C° 0 mm 2 mps 754 mmHg 63%
09:00 +4°C° 0 mm 2 mps 754 mmHg 63%
10:00 +5°C° 0 mm 2 mps 754 mmHg 62%
11:00 +5°C° 0 mm 3 mps 754 mmHg 62%
12:00 +5°C° 0 mm 3 mps 753 mmHg 63%
13:00 +5°C° 0 mm 3 mps 753 mmHg 64%
14:00 +7°C° 0 mm 3 mps 753 mmHg 65%
15:00 +5°C° 0 mm 3 mps 752 mmHg 68%
16:00 +4°C° 0 mm 3 mps 752 mmHg 71%
17:00 +4°C° 0 mm 2 mps 752 mmHg 74%
18:00 +4°C° 0 mm 2 mps 752 mmHg 75%
19:00 +3°C° 0 mm 2 mps 751 mmHg 76%
20:00 +3°C° 0 mm 2 mps 751 mmHg 77%
21:00 +3°C° 0 mm 2 mps 751 mmHg 76%
22:00 +3°C° 0 mm 2 mps 750 mmHg 75%
23:00 +3°C° 0 mm 1 mps 750 mmHg 75%

Day after tomorrow, 3 October, Saturday

Time Temperature Precipitation Wind Pressure Humidity
00:00 +2°C° 0 mm 2 mps 749 mmHg 77%
01:00 +2°C° 0 mm 2 mps 749 mmHg 79%
02:00 +2°C° 0 mm 2 mps 748 mmHg 82%
03:00 +4°C° 0 mm 1 mps 748 mmHg 86%
04:00 +4°C° 0 mm 1 mps 748 mmHg 89%
05:00 +4°C° 0 mm 1 mps 748 mmHg 93%
06:00 +4°C° 0.2 mm 1 mps 747 mmHg 94%
07:00 +4°C° 0.2 mm 1 mps 747 mmHg 94%
08:00 +4°C° 0.2 mm 1 mps 747 mmHg 95%
09:00 +4°C° 0 mm 1 mps 747 mmHg 94%
10:00 +5°C° 0 mm 1 mps 747 mmHg 94%
11:00 +5°C° 0 mm 1 mps 747 mmHg 94%
12:00 +5°C° 0 mm 1 mps 747 mmHg 94%
13:00 +5°C° 0 mm 1 mps 747 mmHg 94%
14:00 +5°C° 0 mm 1 mps 747 mmHg 94%
15:00 +4°C° 0 mm 0 mps 748 mmHg 95%
16:00 +4°C° 0 mm 0 mps 748 mmHg 96%
17:00 +4°C° 0 mm 0 mps 748 mmHg 97%
18:00 +5°C° 0.1 mm 1 mps 749 mmHg 97%
19:00 +5°C° 0.1 mm 1 mps 750 mmHg 96%
20:00 +4°C° 0.1 mm 2 mps 750 mmHg 96%
21:00 +4°C° 0.1 mm 2 mps 751 mmHg 96%
22:00 +4°C° 0.1 mm 2 mps 751 mmHg 96%
23:00 +4°C° 0.1 mm 2 mps 752 mmHg 96%

4 October, Sunday

Time Temperature Precipitation Wind Pressure Humidity
00:00 +4°C° 0 mm 2 mps 752 mmHg 96%
01:00 +3°C° 0 mm 2 mps 753 mmHg 96%
02:00 +3°C° 0 mm 2 mps 754 mmHg 95%
03:00 +3°C° 0 mm 2 mps 754 mmHg 96%
04:00 +3°C° 0 mm 2 mps 754 mmHg 96%
05:00 +3°C° 0 mm 2 mps 755 mmHg 96%
06:00 +4°C° 0 mm 1 mps 755 mmHg 95%
07:00 +4°C° 0 mm 1 mps 756 mmHg 94%
08:00 +4°C° 0 mm 1 mps 756 mmHg 93%
09:00 +5°C° 0 mm 1 mps 757 mmHg 89%
10:00 +5°C° 0 mm 0 mps 757 mmHg 86%
11:00 +6°C° 0 mm 0 mps 757 mmHg 83%
12:00 +6°C° 0 mm 0 mps 757 mmHg 81%
13:00 +7°C° 0 mm 1 mps 757 mmHg 79%
14:00 +7°C° 0 mm 1 mps 757 mmHg 78%
15:00 +7°C° 0 mm 1 mps 757 mmHg 81%
16:00 +6°C° 0 mm 1 mps 757 mmHg 85%
17:00 +5°C° 0 mm 1 mps 757 mmHg 88%
18:00 +4°C° 0 mm 1 mps 757 mmHg 89%
19:00 +4°C° 0 mm 1 mps 757 mmHg 90%
20:00 +3°C° 0 mm 1 mps 757 mmHg 92%
21:00 +3°C° 0 mm 1 mps 757 mmHg 92%
22:00 +3°C° 0 mm 1 mps 757 mmHg 92%
23:00 +3°C° 0 mm 1 mps 757 mmHg 93%

5 October, Monday

Time Temperature Precipitation Wind Pressure Humidity
00:00 +3°C° 0 mm 1 mps 757 mmHg 93%
01:00 +3°C° 0 mm 1 mps 756 mmHg 93%
02:00 +3°C° 0 mm 1 mps 756 mmHg 93%
03:00 +3°C° 0 mm 1 mps 756 mmHg 93%
04:00 +3°C° 0 mm 1 mps 756 mmHg 92%
05:00 +3°C° 0 mm 1 mps 756 mmHg 92%
06:00 +4°C° 0 mm 1 mps 756 mmHg 91%
07:00 +4°C° 0 mm 1 mps 756 mmHg 91%
08:00 +4°C° 0 mm 1 mps 756 mmHg 91%
09:00 +4°C° 0 mm 2 mps 756 mmHg 89%
10:00 +5°C° 0 mm 2 mps 756 mmHg 87%
11:00 +5°C° 0 mm 2 mps 756 mmHg 84%
12:00 +5°C° 0 mm 2 mps 756 mmHg 85%
13:00 +4°C° 0 mm 3 mps 756 mmHg 86%
14:00 +4°C° 0 mm 3 mps 756 mmHg 87%
15:00 +4°C° 0 mm 3 mps 756 mmHg 89%
16:00 +4°C° 0 mm 3 mps 755 mmHg 90%
17:00 +3°C° 0 mm 3 mps 755 mmHg 92%
18:00 +3°C° 0 mm 3 mps 755 mmHg 92%
19:00 +3°C° 0 mm 3 mps 756 mmHg 93%
20:00 +3°C° 0 mm 3 mps 756 mmHg 94%
21:00 +3°C° 0 mm 3 mps 755 mmHg 94%
22:00 +3°C° 0 mm 3 mps 755 mmHg 94%
23:00 +3°C° 0 mm 3 mps 755 mmHg 94%

6 October, Tuesday

Time Temperature Precipitation Wind Pressure Humidity
00:00 +3°C° 0 mm 3 mps 755 mmHg 94%
01:00 +3°C° 0 mm 3 mps 754 mmHg 94%
02:00 +3°C° 0 mm 3 mps 754 mmHg 94%
03:00 +3°C° 0 mm 3 mps 754 mmHg 94%
04:00 +4°C° 0 mm 2 mps 753 mmHg 94%
05:00 +4°C° 0 mm 2 mps 753 mmHg 95%
06:00 +5°C° 0 mm 2 mps 753 mmHg 95%
07:00 +5°C° 0 mm 2 mps 752 mmHg 95%
08:00 +5°C° 0 mm 2 mps 752 mmHg 96%
09:00 +6°C° 0 mm 2 mps 752 mmHg 96%
10:00 +6°C° 0 mm 2 mps 752 mmHg 95%
11:00 +7°C° 0 mm 2 mps 751 mmHg 95%
12:00 +7°C° 0 mm 2 mps 751 mmHg 95%
13:00 +7°C° 0 mm 2 mps 751 mmHg 94%
14:00 +7°C° 0 mm 2 mps 750 mmHg 94%
15:00 +7°C° 0 mm 2 mps 750 mmHg 95%
16:00 +8°C° 0 mm 1 mps 750 mmHg 95%
17:00 +7°C° 0 mm 1 mps 750 mmHg 96%
18:00 +7°C° 0.1 mm 1 mps 750 mmHg 96%
19:00 +7°C° 0.1 mm 1 mps 750 mmHg 97%
20:00 +7°C° 0.1 mm 1 mps 750 mmHg 97%
21:00 +6°C° 0 mm 2 mps 750 mmHg 97%
22:00 +6°C° 0 mm 2 mps 750 mmHg 97%
23:00 +6°C° 0 mm 2 mps 750 mmHg 96%
Show more

We Need Your Consent

Meteoprog and our Service Providers may store and access personal data such as cookies, device identifiers or other similar technologies on your device and process such data to personalise content and ads, as well as provide social media features and to analyse the traffic.

  • Store and/or access information on your device

    Cookies, device identifiers or other information can be stored or accessed on your device for the purposes indicated above.

  • Personalised ads and content, ad and content measurement, audience insights, and products development

    Ads and content can be personalised based on a profile. More data can be added to better personalise ads and content. Ad and content performance can be measured. Insights about the audience who saw the ads and content can be derived. Such data can be used to develop or improve user’s experience, systems and software.

By clicking ‘I Agree’ you will allow the use of indicated cookies, device identifiers, web beacons or other similar technologies. Your settings can be changed in the browser on your device.

For certain purposes, legitimate interests may be relied on, rather than consent. You can read more about this in our Privacy and Cookie Policy.